CW9533 Torre Faro Messina IT current weather conditions

sailwx.info

Wind from 169 at 3 knots gusting 11

Air temperature 16.1° C
Dewpoint 12.1° C

Last reported at 2017-Feb-28 11:54 UTC.
Time now 2017-Feb-28 12:44 UTC

Location: N 38°16' E 015°39'.
View on Google Maps.

See reports from other nearby stations

  
Tides and Currents Weather Stations Pressure Air Temp Water Temp Dewpoint Dewpoint Depression Visibility Wind Speed Wind Dir Waves Ship Positions
date/time (UTC)wind fromknots sea level pressurealtimeterstation pressurevisibilityair tempwater tempwave heightnotes
2017-Feb-28 11:54 169 3 gusting 11 16.1
2017-Feb-28 11:39 169 3 gusting 9 16.1
2017-Feb-28 11:24 169 5 gusting 11 16.1
2017-Feb-28 11:09 169 6 gusting 11 16.1
2017-Feb-28 10:54 169 5 gusting 9 16.1
2017-Feb-28 10:39 169 3 gusting 6 16.1
2017-Feb-28 10:24 169 2 gusting 9 15.6
2017-Feb-28 10:09 169 2 gusting 8 15.6
2017-Feb-28 09:54 169 2 gusting 8 15.6
2017-Feb-28 09:39 170 1 gusting 5 15.6
2017-Feb-28 09:24 170 2 gusting 6 15.6
2017-Feb-28 09:09 170 1 gusting 6 15.6
2017-Feb-28 08:54 170 1 gusting 6 15.6
2017-Feb-28 08:39 170 1 gusting 6 15.0
2017-Feb-28 08:24 170 1 gusting 5 15.0
2017-Feb-28 08:09 170 1 gusting 5 15.0
2017-Feb-28 07:54 170 0 gusting 4 15.0
2017-Feb-28 07:39 170 14.4
2017-Feb-28 07:24 170 14.4
2017-Feb-28 07:09 170 13.9
2017-Feb-28 06:54 170 13.3
2017-Feb-28 06:39 170 12.8
2017-Feb-28 06:24 170 12.2
2017-Feb-28 06:09
2017-Feb-28 05:53
2017-Feb-28 05:38
2017-Feb-28 05:23
2017-Feb-28 05:08
2017-Feb-28 04:53 170 1 gusting 3 12.2
2017-Feb-28 04:38 170 0 gusting 3 12.2
2017-Feb-28 04:23 170 12.8
2017-Feb-28 04:08 170 0 gusting 2 12.8
2017-Feb-28 03:53 170 12.8
2017-Feb-28 03:38 170 12.8
2017-Feb-28 03:23 170 0 gusting 2 12.8
2017-Feb-28 03:08 170 12.8
2017-Feb-28 02:53 170 12.8
2017-Feb-28 02:38 170 1 gusting 3 13.3
2017-Feb-28 02:23 170 13.3
2017-Feb-28 02:08 171 0 gusting 6 13.9
2017-Feb-28 01:53 171 2 gusting 6 13.9
2017-Feb-28 01:38 171 1 gusting 6 13.9
2017-Feb-28 01:23 171 2 gusting 7 13.9
2017-Feb-28 01:08 170 3 gusting 8 13.9
2017-Feb-28 00:53 170 6 gusting 10 13.9
2017-Feb-28 00:38 170 4 gusting 8 14.4
2017-Feb-28 00:23 170 4 gusting 9 13.9
2017-Feb-28 00:08 170 2 gusting 7 13.9
2017-Feb-27 23:53 170 3 gusting 6 13.9
2017-Feb-27 23:38 170 3 gusting 7 13.9
2017-Feb-27 23:23 170 4 gusting 7 13.9
2017-Feb-27 23:08 170 4 gusting 9 13.9
2017-Feb-27 22:53 170 4 gusting 7 13.9
2017-Feb-27 22:38 170 4 gusting 7 13.9
2017-Feb-27 22:23 170 4 gusting 7 13.9
2017-Feb-27 22:08 170 1 gusting 6 13.9
2017-Feb-27 21:53 170 1 gusting 4 13.9
2017-Feb-27 21:38 170 0 gusting 4 13.9
2017-Feb-27 21:23 170 2 gusting 6 14.4
2017-Feb-27 21:08 170 2 gusting 6 14.4
2017-Feb-27 20:53 170 2 gusting 6 14.4
2017-Feb-27 20:37 170 0 gusting 3 14.4
2017-Feb-27 20:22 170 14.4
2017-Feb-27 20:07 170 14.4
2017-Feb-27 19:52 170 14.4
2017-Feb-27 19:37 170 14.4
2017-Feb-27 19:22 170 14.4
2017-Feb-27 19:07 170 15.0
2017-Feb-27 18:52 170 15.0
2017-Feb-27 18:37 170 2 gusting 6 15.0
2017-Feb-27 18:22 170 1 gusting 6 15.6
2017-Feb-27 18:08 170 2 gusting 7 15.6
2017-Feb-27 17:52 170 4 gusting 8 15.6
2017-Feb-27 17:37 170 3 gusting 8 16.1
2017-Feb-27 17:22 170 5 gusting 11 16.1
2017-Feb-27 17:07 170 6 gusting 10 16.1
2017-Feb-27 16:52 170 5 gusting 12 16.1
2017-Feb-27 16:37 170 5 gusting 11 16.1
2017-Feb-27 16:22 170 3 gusting 10 16.1
2017-Feb-27 16:07 170 5 gusting 10 16.1
2017-Feb-27 15:52 170 6 gusting 12 16.1
2017-Feb-27 15:37 170 3 gusting 7 16.7
2017-Feb-27 15:22 170 3 gusting 12 16.1
2017-Feb-27 15:07 169 5 gusting 10 16.7
2017-Feb-27 14:52 170 6 gusting 12 16.1
2017-Feb-27 14:37 170 5 gusting 12 16.7
2017-Feb-27 14:22 170 3 gusting 7 16.7
2017-Feb-27 14:07 169 4 gusting 9 17.2
2017-Feb-27 13:52 169 5 gusting 12 16.7
2017-Feb-27 13:37 147 3 gusting 6 17.2
2017-Feb-27 13:22 147 1 gusting 6 17.2
2017-Feb-27 13:07 147 4 gusting 6 17.2
2017-Feb-27 12:52 147 2 gusting 6 17.8
2017-Feb-27 12:37 147 3 gusting 7 18.3
2017-Feb-27 12:22 147 2 gusting 6 17.8
2017-Feb-27 12:07 147 17.8
2017-Feb-27 11:52 147 3 gusting 11 17.2
2017-Feb-27 11:37 147 3 gusting 6 17.8
2017-Feb-27 11:22 147 3 gusting 7 17.8
2017-Feb-27 11:07 147 2 gusting 7 17.8
2017-Feb-27 10:52 147 4 gusting 8 17.2
2017-Feb-27 10:37 147 0 gusting 6 17.2
2017-Feb-27 10:22 147 4 gusting 6 17.2
2017-Feb-27 10:07 147 5 gusting 8 16.7
2017-Feb-27 09:52 147 4 gusting 10 16.7
2017-Feb-27 09:37 147 3 gusting 8 16.1
2017-Feb-27 09:22 147 5 gusting 11 16.1
2017-Feb-27 09:07 147 7 gusting 13 16.1
2017-Feb-27 08:52 147 5 gusting 13 16.7
2017-Feb-27 08:37 147 6 gusting 13 16.7
2017-Feb-27 08:22 147 3 gusting 11 16.1
2017-Feb-27 08:07 147 5 gusting 10 16.1
2017-Feb-27 07:52 147 6 gusting 13 16.1
2017-Feb-27 07:37 147 4 gusting 11 15.6
2017-Feb-27 07:22 147 9 gusting 16 15.6
2017-Feb-27 07:07 147 10 gusting 17 15.6
2017-Feb-27 06:52 147 9 gusting 14 15.6
2017-Feb-27 06:37 147 6 gusting 12 15.0
2017-Feb-27 06:22 147 7 gusting 12 15.0
2017-Feb-27 06:06
2017-Feb-27 05:51
2017-Feb-27 05:37
2017-Feb-27 05:21
2017-Feb-27 05:06
2017-Feb-27 04:51
2017-Feb-27 04:36 147 7 gusting 13 15.6
2017-Feb-27 04:21 147 6 gusting 11 15.6
2017-Feb-27 04:06 147 6 gusting 13 15.6
2017-Feb-27 03:51 147 6 gusting 12 15.6
2017-Feb-27 03:36 147 6 gusting 10 15.6
2017-Feb-27 03:21 147 6 gusting 13 15.6
2017-Feb-27 03:06 147 6 gusting 13 15.6
2017-Feb-27 02:51 147 6 gusting 13 15.6
2017-Feb-27 02:36 147 4 gusting 10 15.6
2017-Feb-27 02:21 146 6 gusting 13 15.6
2017-Feb-27 02:06 147 8 gusting 13 15.0
2017-Feb-27 01:51 147 9 gusting 18 15.0
2017-Feb-27 01:36 147 7 gusting 14 15.0
2017-Feb-27 01:21 147 6 gusting 13 15.6
2017-Feb-27 01:06 147 6 gusting 13 15.0
2017-Feb-27 00:51 147 7 gusting 13 15.0
2017-Feb-27 00:36 147 6 gusting 13 15.0
2017-Feb-27 00:21 147 5 gusting 12 14.4
2017-Feb-27 00:06 146 9 gusting 15 14.4
2017-Feb-26 23:51 147 6 gusting 13 13.9
2017-Feb-26 23:36 147 6 gusting 11 14.4
2017-Feb-26 23:21 147 6 gusting 15 14.4
2017-Feb-26 23:06 147 5 gusting 16 14.4
2017-Feb-26 22:51 147 6 gusting 12 14.4
2017-Feb-26 22:36 147 6 gusting 13 14.4
2017-Feb-26 22:21 147 6 gusting 13 14.4
2017-Feb-26 22:06 147 6 gusting 10 14.4
2017-Feb-26 21:51 147 4 gusting 10 13.9
2017-Feb-26 21:36 147 4 gusting 12 13.9
2017-Feb-26 21:21 147 6 gusting 10 13.9
2017-Feb-26 21:06 147 3 gusting 6 13.9
2017-Feb-26 20:51 148 4 gusting 8 13.9
2017-Feb-26 20:36 148 6 gusting 10 13.9
2017-Feb-26 20:21 148 6 gusting 13 13.9
2017-Feb-26 20:06 148 6 gusting 13 13.9
2017-Feb-26 19:51 148 6 gusting 12 13.9
2017-Feb-26 19:36 148 4 gusting 11 13.9
2017-Feb-26 19:20 148 7 gusting 16 13.9
2017-Feb-26 19:05 148 5 gusting 12 13.3
2017-Feb-26 18:50 148 4 gusting 13 12.8
2017-Feb-26 18:35 148 5 gusting 8 12.2
2017-Feb-26 18:21 148 3 gusting 6 12.8
2017-Feb-26 18:05 148 3 gusting 6 12.8
2017-Feb-26 17:50 148 12.8
2017-Feb-26 17:35 148 0 gusting 6 13.3
2017-Feb-26 17:20 148 0 gusting 4 13.3
2017-Feb-26 17:05 148 0 gusting 3 13.3
2017-Feb-26 16:50 148 1 gusting 3 13.3
2017-Feb-26 16:35 148 13.3
2017-Feb-26 16:20 148 13.3
2017-Feb-26 16:05 148 0 gusting 2 13.9
2017-Feb-26 15:50 148 13.9
2017-Feb-26 15:35 148 0 gusting 3 13.9
2017-Feb-26 15:20 148 13.9
2017-Feb-26 15:05 148 13.9
2017-Feb-26 14:50 148 13.3
2017-Feb-26 14:35 148 1 gusting 3 13.9
2017-Feb-26 14:20 148 13.3
2017-Feb-26 14:05 148 1 gusting 4 13.9
2017-Feb-26 13:50 148 1 gusting 4 13.9
2017-Feb-26 13:35 148 2 gusting 6 14.4
2017-Feb-26 13:20 148 14.4
2017-Feb-26 13:05 147 2 gusting 6 15.0
2017-Feb-26 12:50 147 6 gusting 9 15.0
2017-Feb-26 12:35 147 5 gusting 13 15.0
2017-Feb-26 12:20 147 6 gusting 11 15.0
2017-Feb-26 12:05 147 6 gusting 11 15.0